Location: Banska Bystrica
(0.0000°N, 19.1500°E)
Time: 00:28:13
(UTC+01:00)

Cosmos 1125 Rocket - Pass Details

Date: 19 February 2019
Orbit: 757 x 781 km, 74.0° (Epoch: 20 March)

Event Time Altitude Azimuth Distance (km) Brightness Sun altitude
Rises 19:28:59 0° 351° (N) 3,244 6.7 -22.5°
Reaches altitude 10° 19:31:21 10° 352° (N) 2,321 5.9 -23.1°
Maximum altitude 19:36:38 77° 78° (ENE) 803 3.3 -24.3°
Drops below altitude 10° 19:41:56 10° 163° (SSE) 2,331 5.9 -25.6°
Sets 19:44:19 0° 165° (SSE) 3,260 6.7 -26.2°
